Weather History for Westhampton Beach, NY

Change the Weather History Date:

Sunday, May 12, 2013

  Actual Average Record
Temperature  
Mean Temperature 60 °F -  
Max Temperature 69 °F 63 °F 81 °F (2004)
Min Temperature 53 °F 42 °F 35 °F (2012)
Degree Days  
Heating Degree Days 4    
Growing Degree Days 10 (Base 50)    
Moisture  
Dew Point 49 °F    
Average Humidity 73    
Maximum Humidity 100    
Minimum Humidity 30    
Precipitation  
Precipitation 0.03 in - - ()
Sea Level Pressure  
Sea Level Pressure 29.72 in    
Wind  
Wind Speed 6 mph (WSW)    
Max Wind Speed 18 mph    
Max Gust Speed 28 mph    
Visibility 6 miles    
Events Fog , Rain    
Averages and records for this station are not official NWS values.
T = Trace of Precipitation, MM = Missing Value Source: NWS Daily Summary

Daily Weather History Graph

Daily Weather History Graph

Search for Another Location

Airport:

Trip Planner

Search our weather history database for the weather conditions in past years. The results will help you decide how hot, cold, wet, or windy it might be!

Date:

Astronomy

May. 12, 2013 Rise Set
Actual Time 5:35 AM EDT 7:58 PM EDT
Civil Twilight 5:04 AM EDT 8:29 PM EDT
Nautical Twilight 4:26 AM EDT 9:07 PM EDT
Astronomical Twilight 3:44 AM EDT 9:50 PM EDT
Moon 7:28 AM EDT (5/12) 10:23 PM EDT (5/12)
Length of Visible Light 15h 24m
Length of Day
14h 22m
Waxing Crescent, 6% of the Moon is Illuminated
May 12
Waxing Crescent
May 18
First Quarter
May 25
Full
May 31
Last Quarter
Jun 8
New

Hourly Weather History & Observations

Time (EDT) Temp. Dew Point Humidity Pressure Visibility Wind Dir Wind Speed Gust Speed Precip Events Conditions
12:53 AM 57.9 °F 57.0 °F 97% 29.72 in 3.0 mi SW 5.8 mph - N/A   Overcast
1:06 AM 57.2 °F 57.2 °F 100% 29.72 in 2.0 mi South 6.9 mph - N/A   Overcast
1:15 AM 57.2 °F 57.2 °F 100% 29.72 in 1.5 mi SSW 4.6 mph - N/A   Overcast
1:53 AM 57.0 °F 55.9 °F 96% 29.71 in 2.0 mi SW 3.5 mph - N/A   Overcast
2:14 AM 57.2 °F 55.4 °F 94% 29.69 in 1.5 mi WSW 3.5 mph - N/A   Overcast
2:33 AM 57.2 °F 55.4 °F 94% 29.69 in 0.5 mi Calm Calm - N/A Fog Fog
2:53 AM 57.0 °F 57.0 °F 100% 29.68 in 0.2 mi Calm Calm - N/A Fog Fog
3:53 AM 57.0 °F 55.9 °F 96% 29.71 in 0.2 mi SW 3.5 mph - N/A Fog Fog
4:53 AM 55.9 °F 55.0 °F 97% 29.70 in 0.5 mi SSW 4.6 mph - 0.01 in Fog , Rain Light Rain
5:12 AM 55.4 °F 55.4 °F 100% 29.69 in 1.2 mi SSW 3.5 mph - 0.00 in Rain Light Rain
5:48 AM 55.4 °F 55.4 °F 100% 29.69 in 0.8 mi Calm Calm - 0.01 in Rain Light Rain
5:53 AM 55.9 °F 55.0 °F 97% 29.69 in 0.5 mi Calm Calm - 0.01 in Fog Fog
6:00 AM 55.4 °F 55.4 °F 100% 29.68 in 0.2 mi Calm Calm - N/A Fog Fog
6:53 AM 57.0 °F 55.9 °F 96% 29.70 in 1.2 mi Calm Calm - 0.01 in Rain Light Rain
7:02 AM 57.2 °F 55.4 °F 94% 29.70 in 2.0 mi WSW 4.6 mph - 0.00 in   Overcast
7:41 AM 57.2 °F 57.2 °F 100% 29.68 in 3.0 mi SW 3.5 mph - 0.00 in   Mostly Cloudy
7:53 AM 59.0 °F 57.0 °F 93% 29.70 in 3.0 mi WSW 4.6 mph - 0.00 in   Mostly Cloudy
8:53 AM 59.0 °F 55.0 °F 87% 29.69 in 10.0 mi WNW 3.5 mph - N/A   Overcast
9:53 AM 60.1 °F 52.0 °F 75% 29.69 in 10.0 mi West 12.7 mph - N/A   Mostly Cloudy
10:53 AM 64.9 °F 51.1 °F 61% 29.69 in 10.0 mi West 12.7 mph 17.3 mph N/A   Partly Cloudy
11:53 AM 68.0 °F 48.9 °F 50% 29.69 in 10.0 mi West 13.8 mph 21.9 mph N/A   Clear
12:53 PM 66.9 °F 48.9 °F 52% 29.69 in 10.0 mi SW 12.7 mph - N/A   Partly Cloudy
1:53 PM 68.0 °F 46.9 °F 47% 29.68 in 10.0 mi SW 13.8 mph 25.3 mph N/A   Partly Cloudy
2:53 PM 68.0 °F 46.9 °F 47% 29.68 in 10.0 mi SW 13.8 mph 25.3 mph N/A   Clear
3:53 PM 68.0 °F 46.0 °F 45% 29.67 in 10.0 mi SW 18.4 mph 27.6 mph N/A   Clear
4:53 PM 66.9 °F 39.0 °F 36% 29.68 in 10.0 mi SW 16.1 mph 24.2 mph N/A   Clear
5:53 PM 64.9 °F 36.0 °F 34% 29.70 in 10.0 mi SW 17.3 mph 27.6 mph N/A   Clear
6:53 PM 64.9 °F 35.1 °F 33% 29.73 in 10.0 mi West 10.4 mph 20.7 mph N/A   Scattered Clouds
7:53 PM 61.0 °F 28.9 °F 30% 29.77 in 10.0 mi WNW 10.4 mph - N/A   Clear
8:53 PM 57.0 °F 30.0 °F 36% 29.80 in 10.0 mi WNW 9.2 mph - N/A   Clear
9:53 PM 53.1 °F 30.0 °F 41% 29.84 in 10.0 mi West 8.1 mph - N/A   Clear
10:53 PM 55.0 °F 28.0 °F 35% 29.88 in 10.0 mi WNW 11.5 mph - N/A   Clear
11:53 PM 53.1 °F 27.0 °F 37% 29.91 in 10.0 mi West 12.7 mph - N/A   Clear